Городище

Беларусь     53°19′39″N   26°00′28″E
темп.,
°C
ветер,
м/с
пор.,
м/с
влажн.,
%
обл.,
%
осадки,
мм/ч
давл.,
гПа
погр.,
м
7 марта, вс
вс700:00−4зюз7167845 0.0 1019453
03:00−3зюз8177973 0.0 1016641
06:00−2зюз101887100 0.0 1012937
09:00−1з111992100 0.3 10091131
12:000з121889100 0.3 10081239
15:00+1з11189099 0.4 10081143
18:000з91597100 1.8 10071003
21:00−1зсз61294100 4.3 1007812
8 марта, пн
пн800:00−4зсз7158467 0.0 1008594
03:00−6зсз5138833 0.0 1009420
06:00−6з614890 0.0 1009490
09:00−5ссз7119145 0.6 1010813
12:00−3сз7108485 0.1 10121027
15:00−2сз797972 0.1 10141197
18:00−4сз5108398 0.1 1015558
21:00−7сз479098 0.1 1017143
9 марта, вт
вт900:00−8ссз349127 0.0 101847
03:00−9ссз339114 0.0 102041
06:00−10ссз23920 0.0 102128
09:00−9ссз229331 0.0 102236
12:00−5ссз118387 0.0 1023382
15:00−4з117281 0.0 1023596
18:00−5зсз118271 0.0 102221
21:00−8ююз118182 0.0 102321
10 марта, ср
ср1000:00−9ю228361 0.0 102421
03:00−9ю228571 0.0 102421
06:00−10ююз228337 0.0 102321
09:00−9ююз228419 0.0 102421
12:00−3юз23760 0.0 1024365
15:00−2зюз23670 0.0 1023919
18:00−4зсз22810 0.0 102223
21:00−7юз23770 0.0 102321
11 марта, чт
чт1100:00−7юз33790 0.0 102328
03:00−7юз34790 0.0 102339
06:00−7юз337859 0.0 102231
09:00−6ююз348237 0.0 102276
12:00−1ю57740 0.0 1020579
15:000ю597250 0.0 10181043
18:00−1ю61275100 0.0 1015470
21:00−1ю71575100 0.0 1013610